• In Germany
  • List of Countries
  • For 7 days
  • Water Temperature
  • Satellite Maps
  • Weather Map
  • Weather Widgets
  • user-avatar
    Login

    Hourly Weather Nayarit

    Today, 15 August, Wednesday

    Time Temperature Precipitation Wind Pressure Humidity
    00:00 +25°C° 0.2 mm 1 mps 741 mmHg 96%
    01:00 +25°C° 0.2 mm 1 mps 741 mmHg 96%
    02:00 +23°C° 0.2 mm 0 mps 741 mmHg 96%
    03:00 +25°C° 0.1 mm 1 mps 741 mmHg 96%
    04:00 +25°C° 0.1 mm 1 mps 741 mmHg 95%
    05:00 +25°C° 0.1 mm 1 mps 741 mmHg 95%
    06:00 +27°C° 0.4 mm 1 mps 742 mmHg 88%
    07:00 +26°C° 0.4 mm 0 mps 742 mmHg 81%
    08:00 +28°C° 0.4 mm 0 mps 742 mmHg 75%
    09:00 +32°C° 0.4 mm 1 mps 742 mmHg 69%
    10:00 +33°C° 0.4 mm 1 mps 742 mmHg 62%
    11:00 +35°C° 0.4 mm 1 mps 742 mmHg 56%
    12:00 +36°C° 0.7 mm 2 mps 741 mmHg 57%
    13:00 +35°C° 0.7 mm 2 mps 741 mmHg 58%
    14:00 +35°C° 0.7 mm 2 mps 740 mmHg 60%
    15:00 +34°C° 0.8 mm 2 mps 740 mmHg 64%
    16:00 +32°C° 0.8 mm 2 mps 740 mmHg 68%
    17:00 +31°C° 0.8 mm 2 mps 740 mmHg 71%
    18:00 +29°C° 0.1 mm 1 mps 740 mmHg 78%
    19:00 +28°C° 0.1 mm 1 mps 741 mmHg 85%
    20:00 +25°C° 0.1 mm 0 mps 741 mmHg 91%
    21:00 +24°C° 0 mm 0 mps 742 mmHg 92%
    22:00 +24°C° 0 mm 0 mps 742 mmHg 93%
    23:00 +24°C° 0 mm 0 mps 742 mmHg 93%

    Tomorrow, 16 August, Thursday

    Time Temperature Precipitation Wind Pressure Humidity
    00:00 +24°C° 0 mm 0 mps 742 mmHg 93%
    01:00 +26°C° 0 mm 1 mps 742 mmHg 93%
    02:00 +26°C° 0 mm 1 mps 742 mmHg 93%
    03:00 +26°C° 0 mm 1 mps 741 mmHg 92%
    04:00 +26°C° 0 mm 1 mps 741 mmHg 91%
    05:00 +26°C° 0 mm 1 mps 741 mmHg 91%
    06:00 +27°C° 0 mm 1 mps 742 mmHg 83%
    07:00 +27°C° 0 mm 0 mps 742 mmHg 76%
    08:00 +29°C° 0 mm 0 mps 743 mmHg 69%
    09:00 +33°C° 0 mm 1 mps 742 mmHg 61%
    10:00 +35°C° 0 mm 1 mps 742 mmHg 53%
    11:00 +37°C° 0 mm 1 mps 742 mmHg 45%
    12:00 +38°C° 0 mm 2 mps 742 mmHg 45%
    13:00 +38°C° 0 mm 2 mps 741 mmHg 45%
    14:00 +38°C° 0 mm 3 mps 741 mmHg 45%
    15:00 +37°C° 0.3 mm 3 mps 740 mmHg 53%
    16:00 +35°C° 0.3 mm 2 mps 740 mmHg 60%
    17:00 +32°C° 0.3 mm 2 mps 740 mmHg 68%
    18:00 +31°C° 0.6 mm 2 mps 741 mmHg 76%
    19:00 +29°C° 0.6 mm 1 mps 741 mmHg 84%
    20:00 +28°C° 0.6 mm 1 mps 742 mmHg 92%
    21:00 +28°C° 0.1 mm 1 mps 742 mmHg 93%
    22:00 +28°C° 0.1 mm 1 mps 742 mmHg 93%
    23:00 +27°C° 0.1 mm 1 mps 743 mmHg 94%

    Day after tomorrow, 17 August, Friday

    Time Temperature Precipitation Wind Pressure Humidity
    00:00 +25°C° 0.5 mm 0 mps 743 mmHg 94%
    01:00 +25°C° 0.5 mm 0 mps 742 mmHg 95%
    02:00 +25°C° 0.5 mm 0 mps 742 mmHg 95%
    03:00 +25°C° 0.1 mm 0 mps 742 mmHg 95%
    04:00 +26°C° 0.1 mm 1 mps 742 mmHg 95%
    05:00 +26°C° 0.1 mm 1 mps 742 mmHg 95%
    06:00 +28°C° 0 mm 1 mps 742 mmHg 88%
    07:00 +29°C° 0 mm 1 mps 742 mmHg 82%
    08:00 +31°C° 0 mm 1 mps 743 mmHg 76%
    09:00 +33°C° 0 mm 1 mps 743 mmHg 65%
    10:00 +36°C° 0 mm 1 mps 743 mmHg 54%
    11:00 +39°C° 0 mm 1 mps 743 mmHg 43%
    12:00 +39°C° 0.4 mm 2 mps 742 mmHg 47%
    13:00 +38°C° 0.4 mm 2 mps 741 mmHg 50%
    14:00 +38°C° 0.4 mm 3 mps 741 mmHg 54%
    15:00 +36°C° 1 mm 2 mps 741 mmHg 61%
    16:00 +34°C° 1 mm 2 mps 741 mmHg 67%
    17:00 +32°C° 1 mm 2 mps 741 mmHg 73%
    18:00 +31°C° 0.7 mm 2 mps 741 mmHg 80%
    19:00 +29°C° 0.7 mm 1 mps 742 mmHg 87%
    20:00 +28°C° 0.7 mm 1 mps 742 mmHg 94%
    21:00 +28°C° 0 mm 1 mps 742 mmHg 95%
    22:00 +28°C° 0 mm 1 mps 743 mmHg 95%
    23:00 +26°C° 0 mm 0 mps 743 mmHg 96%

    18 August, Saturday

    Time Temperature Precipitation Wind Pressure Humidity
    00:00 +25°C° 0.1 mm 0 mps 743 mmHg 96%
    01:00 +25°C° 0.1 mm 0 mps 742 mmHg 96%
    02:00 +25°C° 0.1 mm 0 mps 742 mmHg 96%
    03:00 +25°C° 0 mm 0 mps 742 mmHg 96%
    04:00 +25°C° 0 mm 0 mps 742 mmHg 95%
    05:00 +27°C° 0 mm 1 mps 742 mmHg 95%
    06:00 +26°C° 0 mm 0 mps 742 mmHg 89%
    07:00 +27°C° 0 mm 0 mps 742 mmHg 83%
    08:00 +28°C° 0 mm 0 mps 743 mmHg 78%
    09:00 +32°C° 0 mm 1 mps 743 mmHg 69%
    10:00 +34°C° 0 mm 1 mps 742 mmHg 61%
    11:00 +36°C° 0 mm 1 mps 742 mmHg 53%
    12:00 +37°C° 0.6 mm 2 mps 742 mmHg 56%
    13:00 +36°C° 0.6 mm 2 mps 741 mmHg 59%
    14:00 +36°C° 0.6 mm 2 mps 740 mmHg 62%
    15:00 +35°C° 0.5 mm 2 mps 740 mmHg 68%
    16:00 +32°C° 0.5 mm 2 mps 740 mmHg 74%
    17:00 +31°C° 0.5 mm 2 mps 740 mmHg 80%
    18:00 +30°C° 0.2 mm 1 mps 740 mmHg 86%
    19:00 +29°C° 0.2 mm 1 mps 740 mmHg 91%
    20:00 +28°C° 0.2 mm 1 mps 741 mmHg 96%
    21:00 +26°C° 0.2 mm 0 mps 741 mmHg 96%
    22:00 +26°C° 0.2 mm 0 mps 741 mmHg 97%
    23:00 +26°C° 0.2 mm 0 mps 741 mmHg 97%

    19 August, Sunday

    Time Temperature Precipitation Wind Pressure Humidity
    00:00 +26°C° 1.6 mm 0 mps 741 mmHg 97%
    01:00 +25°C° 1.6 mm 0 mps 740 mmHg 97%
    02:00 +25°C° 1.6 mm 0 mps 740 mmHg 97%
    03:00 +25°C° 0.6 mm 0 mps 740 mmHg 97%
    04:00 +25°C° 0.6 mm 0 mps 740 mmHg 97%
    05:00 +25°C° 0.6 mm 0 mps 740 mmHg 96%
    06:00 +26°C° 0.1 mm 0 mps 740 mmHg 90%
    07:00 +28°C° 0.1 mm 0 mps 741 mmHg 84%
    08:00 +29°C° 0.1 mm 0 mps 741 mmHg 78%
    09:00 +33°C° 0.4 mm 1 mps 741 mmHg 71%
    10:00 +34°C° 0.4 mm 1 mps 741 mmHg 65%
    11:00 +37°C° 0.4 mm 2 mps 741 mmHg 58%
    12:00 +37°C° 0.9 mm 2 mps 740 mmHg 59%
    13:00 +36°C° 0.9 mm 2 mps 739 mmHg 61%
    14:00 +36°C° 0.9 mm 3 mps 739 mmHg 62%
    15:00 +35°C° 0.5 mm 2 mps 738 mmHg 70%
    16:00 +32°C° 0.5 mm 2 mps 738 mmHg 77%
    17:00 +31°C° 0.5 mm 2 mps 738 mmHg 84%
    18:00 +30°C° 2.7 mm 1 mps 739 mmHg 88%
    19:00 +29°C° 2.7 mm 1 mps 739 mmHg 92%
    20:00 +28°C° 2.7 mm 1 mps 740 mmHg 95%
    21:00 +26°C° 0.9 mm 0 mps 740 mmHg 96%
    22:00 +26°C° 0.9 mm 0 mps 740 mmHg 96%
    23:00 +25°C° 0.9 mm 0 mps 741 mmHg 97%

    20 August, Monday

    Time Temperature Precipitation Wind Pressure Humidity
    00:00 +25°C° 1.7 mm 0 mps 740 mmHg 96%
    01:00 +25°C° 1.7 mm 0 mps 740 mmHg 96%
    02:00 +25°C° 1.7 mm 0 mps 740 mmHg 95%
    03:00 +25°C° 0.6 mm 0 mps 740 mmHg 95%
    04:00 +25°C° 0.6 mm 0 mps 740 mmHg 96%
    05:00 +25°C° 0.6 mm 0 mps 740 mmHg 96%
    06:00 +26°C° 0 mm 0 mps 740 mmHg 92%
    07:00 +27°C° 0 mm 0 mps 741 mmHg 88%
    08:00 +28°C° 0 mm 0 mps 741 mmHg 85%
    09:00 +32°C° 0.1 mm 1 mps 741 mmHg 76%
    10:00 +33°C° 0.1 mm 1 mps 741 mmHg 67%
    11:00 +35°C° 0.1 mm 1 mps 740 mmHg 58%
    12:00 +36°C° 0.1 mm 2 mps 740 mmHg 60%
    13:00 +36°C° 0.1 mm 2 mps 739 mmHg 61%
    14:00 +36°C° 0.1 mm 2 mps 739 mmHg 63%
    15:00 +34°C° 0.3 mm 2 mps 739 mmHg 70%
    16:00 +32°C° 0.3 mm 2 mps 739 mmHg 77%
    17:00 +31°C° 0.3 mm 2 mps 739 mmHg 84%
    18:00 +30°C° 3.2 mm 1 mps 739 mmHg 88%
    19:00 +28°C° 3.2 mm 1 mps 740 mmHg 91%
    20:00 +27°C° 3.2 mm 1 mps 740 mmHg 95%
    21:00 +27°C° 2.5 mm 1 mps 741 mmHg 95%
    22:00 +25°C° 2.5 mm 0 mps 741 mmHg 96%
    23:00 +25°C° 2.5 mm 0 mps 741 mmHg 97%
    Show more